Regional Weather Roundup
Issued by NWS

Home | Current Version | Previous Version | Text Only | Print | Product List | Glossary On
Versions: 1 2 3 4 5 6 7 8 9 10 11 12 13 14 15 16 17 18 19 20 21 22 23 24 25 26 27 28 29 30 31 32 33 34 35 36 37 38 39 40 41 42 43 44 45 46 47 48 49 50
000
ASUS43 KDTX 270010
RWRMI
MICHIGAN HOURLY REGIONAL WEATHER ROUNDUP
NATIONAL WEATHER SERVICE DETROIT/PONTIAC MI
ISSUED BY NATIONAL WEATHER SERVICE GRAND RAPIDS MI
800 PM EDT FRI MAY 26 2017

NOTE: "FAIR" INDICATES FEW OR NO CLOUDS BELOW 12,000 FEET WITH NO
SIGNIFICANT WEATHER AND/OR OBSTRUCTION TO VISIBILITY.

MIZ047>049-052>055-059>063-066>070-074>076-081>083-270100-
SOUTHEAST LOWER MICHIGAN

CITY           SKY/WX    TMP DP  RH WIND       PRES   REMARKS
ADRIAN         CLOUDY    68  55  63 CALM      29.87S
6HR MIN TEMP:  67; 6HR MAX TEMP:  72;

ALMA           PTSUNNY   66  55  66 S6        29.87R
ANN ARBOR      CLOUDY    67  53  61 CALM      29.87R
BAD AXE        MOCLDY    63  53  69 N3        29.87S
6HR MIN TEMP:  60; 6HR MAX TEMP:  65;

DETROIT CITY   MOCLDY    67  52  58 CALM      29.87R
6HR MIN TEMP:  64; 6HR MAX TEMP:  69;

DETROIT        CLOUDY    68  53  58 NW3       29.88R
6HR MIN TEMP:  65; 6HR MAX TEMP:  71;

FLINT          PTCLDY    66  52  60 S3        29.87R
6HR MIN TEMP:  62; 6HR MAX TEMP:  70;

GROSSE ILE     CLOUDY    61  56  84 S5        29.87R
6HR MIN TEMP:  61; 6HR MAX TEMP:  71;

HILLSDALE      PTCLDY    64  54  68 CALM      29.86F
HOWELL         PTCLDY    64  52  64 CALM      29.88R
6HR MIN TEMP:  64; 6HR MAX TEMP:  68;


CITY           SKY/WX    TMP DP  RH WIND       PRES   REMARKS
JACKSON        LGT RAIN  64  57  78 NE5       29.87S
6HR MIN TEMP:  64; 6HR MAX TEMP:  70; 6HR PCP: TRACE;

LANSING        CLOUDY    67  53  61 NE5       29.87R
6HR MIN TEMP:  67; 6HR MAX TEMP:  71;

MASON          PTCLDY    66  54  66 CALM      29.88R
MONROE         CLOUDY    65  56  71 S6        29.87R
MT. CLEMENS    MOCLDY    64  57  80 SE5       29.86R
6HR MIN TEMP:  62; 6HR MAX TEMP:  68;

PONTIAC        CLOUDY    65  51  60 SW6       29.86S
6HR MIN TEMP:  62; 6HR MAX TEMP:  67;

PORT HOPE        N/A     57  53  86 CALM      29.86S
6HR MIN TEMP:  56; 6HR MAX TEMP:  60;

PORT HURON     CLOUDY    61  54  77 NE3       29.88R
TRI CITIES     PTCLDY    68  55  63 SW5       29.86R
6HR MIN TEMP:  65; 6HR MAX TEMP:  70;

YPSILANTI      CLOUDY    68  55  63 N3        29.88R
6HR MIN TEMP:  67; 6HR MAX TEMP:  71;

$$
MIZ043>046-050>051-056>058-064>065-071>073-077>080-270100-
SOUTHWEST LOWER MICHIGAN

CITY           SKY/WX    TMP DP  RH WIND       PRES   REMARKS
BATTLE CREEK   CLOUDY    67  57  70 SE3       29.86S
6HR MIN TEMP:  67; 6HR MAX TEMP:  71; 6HR PCP:  0.01;

BENTON HARBOR  LGT RAIN  60  55  83 NE7       29.82F
6HR MIN TEMP:  60; 6HR MAX TEMP:  70; 6HR PCP:  0.04;

BIG RAPIDS     CLOUDY    67  52  59 SE6       29.85R
6HR MIN TEMP:  67; 6HR MAX TEMP:  70;

COLDWATER      CLOUDY    66  58  74 E3        29.84F
6HR MIN TEMP:  65; 6HR MAX TEMP:  70;

HOLLAND        CLOUDY    60  51  72 NW3       29.87S
6HR MIN TEMP:  60; 6HR MAX TEMP:  71; 6HR PCP: TRACE;

GRAND RAPIDS   CLOUDY    67  54  63 S5        29.86R
6HR MIN TEMP:  67; 6HR MAX TEMP:  71;

KALAMAZOO      CLOUDY    68  55  63 CALM      29.86R
6HR MIN TEMP:  68; 6HR MAX TEMP:  71; 6HR PCP: TRACE;

MARSHALL       CLOUDY    65  58  77 CALM      29.86S
6HR MIN TEMP:  65; 6HR MAX TEMP:  70;

MOUNT PLEASANT MOSUNNY   68  51  55 S6        29.85R
6HR MIN TEMP:  65; 6HR MAX TEMP:  72;

MUSKEGON       CLOUDY    59  51  75 NW3       29.87S
6HR MIN TEMP:  56; 6HR MAX TEMP:  70;

STURGIS        CLOUDY    66  57  74 CALM      29.86R
6HR MIN TEMP:  66; 6HR MAX TEMP:  70;

$$
MIZ016>042-270100-
NORTHERN LOWER MICHIGAN

CITY           SKY/WX    TMP DP  RH WIND       PRES   REMARKS
ALPENA         SUNNY     63  53  70 SE6       29.85R
6HR MIN TEMP:  63; 6HR MAX TEMP:  70;

BEAVER ISLAND  SUNNY     60  50  69 W7        29.86R
6HR MIN TEMP:  57; 6HR MAX TEMP:  66;

BELLAIRE       MOSUNNY   64  51  61 CALM      29.85R
6HR MIN TEMP:  64; 6HR MAX TEMP:  69;

CADILLAC       CLOUDY    67  49  52 CALM      29.85R
CHARLEVOIX     CLOUDY    59  51  73 W5        29.89R
GAYLORD        MOSUNNY   70  47  43 N6        29.85R
6HR MIN TEMP:  66; 6HR MAX TEMP:  71;

HOUGHTON LAKE  CLOUDY    68  50  52 CALM      29.85R
6HR MIN TEMP:  65; 6HR MAX TEMP:  69;

MANISTEE       PTSUNNY   57  51  80 W6        29.86R
OSCODA         CLOUDY    61  52  71 SE3G10    29.86S
6HR MIN TEMP:  60; 6HR MAX TEMP:  64;

PELLSTON       MOSUNNY   67  51  56 NW6       29.84R
6HR MIN TEMP:  67; 6HR MAX TEMP:  72;

TRAVERSE CITY  CLOUDY    58  50  75 NE3       29.84S
6HR MIN TEMP:  57; 6HR MAX TEMP:  70;

LUDINGTON      CLOUDY    53  51  92 CALM      29.87R
6HR MIN TEMP:  53; 6HR MAX TEMP:  68;

$$
MIZ007>008-015-270100-
EASTERN UPPER MICHIGAN

CITY           SKY/WX    TMP DP  RH WIND       PRES   REMARKS
KINROSS        CLOUDY    67  51  56 SW5       29.84R
6HR MIN TEMP:  67; 6HR MAX TEMP:  71;

MACKINAC ISLAN SUNNY     60  51  71 W9        29.85R
6HR MIN TEMP:  59; 6HR MAX TEMP:  68;

NEWBERRY       CLOUDY    66  52  59 SW6       29.83R
6HR MIN TEMP:  66; 6HR MAX TEMP:  73;

S. S. MARIE    SUNNY     65  52  62 W3        29.82R
6HR MIN TEMP:  63; 6HR MAX TEMP:  73;

$$
MIZ004>006-011>014-085-270100-
CENTRAL UPPER MICHIGAN

CITY           SKY/WX    TMP DP  RH WIND       PRES   REMARKS
MANISTIQUE     MOSUNNY   59  48  67 SW5       29.83S
ESCANABA       CLOUDY    59  51  75 S5        29.84S
6HR MIN TEMP:  58; 6HR MAX TEMP:  67; 6HR PCP: TRACE;

MENOMINEE      CLOUDY    64  52  64 SE7       29.85R
6HR MIN TEMP:  64; 6HR MAX TEMP:  67;

SAWYER-GWINN   CLOUDY    66  50  55 S13       29.83R
$$
MIZ001>003-009>011-084-270100-
WESTERN UPPER MICHIGAN

CITY           SKY/WX    TMP DP  RH WIND       PRES   REMARKS
IRON MOUNTAIN  CLOUDY    65  53  65 SE8       29.81S
6HR MIN TEMP:  64; 6HR MAX TEMP:  71; 6HR PCP: TRACE;

HOUGHTON       CLOUDY    57  47  69 NE10      29.78R
6HR MIN TEMP:  57; 6HR MAX TEMP:  66;

COPPER HARBOR    N/A     58  48  69 SW8       29.78S
6HR MIN TEMP:  58; 6HR MAX TEMP:  66;

IRONWOOD       MOSUNNY   69  54  58 S10G18    29.75S
6HR MIN TEMP:  66; 6HR MAX TEMP:  70; 6HR PCP: TRACE;

$$

ABBREVIATIONS USED IN REMARKS
   TC - TEMPERATURE IN CELSIUS
  WCI - WIND CHILL INDEX
   HX - HEAT INDEX
  VSB - VISIBILITY





USA.gov is the U.S. government's official web portal to all federal, state and local government web resources and services.